Hourly Data Report for October 17, 2015

All times are specified in Local Standard Time (LST). Add 1 hour to adjust for Daylight Saving Time where and when it is observed.

PANGNIRTUNG
NUNAVUT

66°08'36.300" N
65°42'40.500" W
22.60 m
2403049
71826
WXP

Download Data

Hourly Data (October 2015)
Hourly Data Report for October 17, 2015
Temp Definition
°C
Dew Point Temp Definition
°C
Rel Hum Definition
%
Wind Dir Definition
10's deg

Wind Spd Definition
km/h
Visibility Definition
km
Stn Press Definition
kPa
Hmdx Definition


Wind Chill Definition


Weather Definition


TIME
00:00 -8.0 -12.3 71 31 9   100.10   -13 LegendNANA
01:00 -7.8 -11.5 74 31 9   100.11   -12 LegendNANA
02:00 -8.0 -13.2 66 31 11   100.12   -13 LegendNANA
03:00 -8.0 -12.7 69 18 8   100.13   -12 LegendNANA
04:00 -8.5 -12.6 72 15 5   100.15   -11 LegendNANA
05:00 -9.0 -13.3 71 34 10   100.19   -14 LegendNANA
06:00 -9.7 -13.2 75 33 16   100.22   -17 LegendNANA
07:00 -9.6 -13.4 74 31 12   100.25   -15 LegendNANA
08:00 -8.8 -12.9 72 23 10   100.25   -14 LegendNANA
09:00 -8.1 -12.6 70 19 3   100.23   -10 LegendNANA
10:00 -8.0 -12.3 71 25 4   100.23   -10 LegendNANA
11:00 -7.2 -11.9 69 26 10   100.23   -12 LegendNANA
12:00 -7.2 -12.2 68 28 13   100.25   -13 LegendNANA
13:00 -6.8 -11.9 67 30 14   100.28   -13 LegendNANA
14:00 -6.8 -12.4 64 31 13   100.32   -12 LegendNANA
15:00 -7.1 -12.4 66 27 9   100.32   -11 LegendNANA
16:00 -7.3 -12.4 66 29 5   100.34   -10 LegendNANA
17:00 -6.7 -12.1 66 0 1   100.36   -7 LegendNANA
18:00 -7.1 -12.0 68 12 3   100.38   -9 LegendNANA
19:00 -7.4 -11.9 71 11 2   100.40   -8 LegendNANA
20:00 -7.5 -11.9 71 11 2   100.39   -9 LegendNANA
21:00 -8.2 -12.1 74 0 1   100.38   -9 LegendNANA
22:00 -8.9 -12.5 75 16 3   100.38   -11 LegendNANA
23:00 -8.4 -13.0 69 12 3   100.39   -10 LegendNANA

Notes on Data Quality.

Legend

  • E = Estimated
  • M = Missing
  • NA = Not Available
  • ‡ = Partner data that is not subject to review by the National Climate Archives
Date modified: